カタログに戻る

Sitro-AIS-63

運用中通信SSO
NORAD 67294·PAYLOAD·🇷🇺 Russia

打ち上げ Dec 28, 2025 から Vostochny Cosmodrome

Loading…

次のパス (今後24時間)

TLE

最新Source: Space-Track

元期: Sep 13, 2026, 16:20 UTC

1 67294U 25313AY  26256.68097133  .00008271  00000-0  31941-3 0  9999
2 67294  97.3874 330.7484 0009531  51.5731 308.6362 15.26477965 39470

AllMySatでSitro-AIS-63をリアルタイム追跡

Download on the App Store